Home   Weather   Tehran   Past weeks

Flag for Iran Past Weather in Tehran, Iran — Yesterday and Last 2 Weeks

Now
95 °F

Sunny.


Feels Like: 90 °F
Forecast: 83 / 102 °F
Wind: 9 mph from Southeast

Location: Tehran-Mehrabad

Current Time: Jul 28, 2017 at 11:33:32 am

Latest Report: Jul 28, 2017 at 11:00 am


Visibility: 10 mi

Pressure: 29.98 "Hg (26.31 "Hg at 1179m altitude)

Humidity: 11%

Dew Point: 32 °F

Location of TehranLocation

Past Weather in Tehran — Graph

°F

Tehran Temperature Yesterday

Maximum temperature yesterday: 104 °F (at 4:00 pm)
Minimum temperature yesterday: 77 °F (at 6:00 am)
Average temperature yesterday: 92 °F

High & Low Weather Summary for the Past Weeks

 TemperatureHumidityPressure
High104 °F (Jul 27, 4:00 pm)69% (Jul 14, 6:00 am)30.09 "Hg (Jul 14, 6:00 am)
Low70 °F (Jul 14, 5:00 am)7% (Jul 20, 9:30 am)29.71 "Hg (Jul 26, 5:30 pm)
Average88 °F19%29.89 "Hg
* Reported Jul 13 10:30 am — Jul 28 10:30 am, Tehran. Weather by CustomWeather, © 2017

Note: Actual official high and low records may vary slightly from our data, if they occured in-between our weather recording intervals... More about our weather records

Advertising

Tehran Weather History for the Previous 24 Hours

Scroll right to see more
 ConditionsComfort  
Time TempWeatherWind HumidityBarometerVisibility
10:30 am
Fri, Jul 28
95 °FSunny.12 mph11%29.98 "Hg10 mi
10:00 am93 °FSunny.9 mph12%29.98 "Hg10 mi
9:30 am91 °FSunny.7 mph13%29.98 "Hg10 mi
9:00 am88 °FSunny.5 mph18%29.98 "Hg10 mi
8:30 am86 °FPassing clouds.5 mph20%29.98 "HgN/A
8:00 am84 °FPassing clouds.5 mph20%29.98 "HgN/A
7:30 am72 °FPassing clouds.5 mph31%29.98 "HgN/A
7:00 am79 °FPassing clouds.No wind26%29.95 "HgN/A
6:30 am81 °FPassing clouds.No wind23%29.95 "HgN/A
6:00 am81 °FClear.5 mph21%29.95 "Hg10 mi
5:30 am82 °FClear.5 mph21%29.95 "Hg10 mi
4:30 am82 °FClear.5 mph21%29.92 "Hg10 mi
4:00 am82 °FClear.5 mph23%29.92 "Hg10 mi
3:30 am84 °FClear.5 mph19%29.92 "Hg10 mi
3:00 am86 °FClear.5 mph19%29.92 "Hg10 mi
2:30 am86 °FClear.5 mph19%29.89 "Hg10 mi
2:00 am91 °FClear.5 mph13%29.89 "Hg10 mi
1:30 am91 °FClear.5 mph13%29.89 "Hg10 mi
1:00 am91 °FClear.7 mph13%29.89 "Hg10 mi
12:30 am91 °FClear.7 mph13%29.89 "Hg10 mi
12:00 am93 °FClear.No wind12%29.89 "Hg10 mi
11:30 pm
Thu, Jul 27
90 °FClear.No wind16%29.86 "Hg10 mi
11:00 pm90 °FClear.5 mph16%29.86 "Hg10 mi
10:30 pm90 °FClear.5 mph16%29.86 "Hg10 mi
10:00 pm91 °FClear.No wind15%29.86 "Hg10 mi
9:30 pm93 °FClear.No wind14%29.83 "Hg10 mi
9:00 pm95 °FPassing clouds.2 mph12%29.83 "HgN/A
8:30 pm95 °FPassing clouds.7 mph11%29.83 "HgN/A
8:00 pm99 °FPassing clouds.7 mph9%29.83 "HgN/A
7:30 pm100 °FPassing clouds.7 mph8%29.80 "HgN/A
7:00 pm100 °FPassing clouds.7 mph8%29.80 "HgN/A
6:30 pm100 °FPassing clouds.7 mph8%29.80 "HgN/A
6:00 pm100 °FPassing clouds.5 mph8%29.80 "HgN/A
5:30 pm100 °FPassing clouds.5 mph8%29.80 "HgN/A
5:00 pm100 °FPassing clouds.7 mph8%29.83 "HgN/A
4:30 pm100 °FPassing clouds.12 mph8%29.83 "HgN/A
4:00 pm104 °FPassing clouds.9 mph7%29.83 "HgN/A
3:30 pm100 °FPassing clouds.12 mph8%29.83 "HgN/A
3:00 pm100 °FPassing clouds.14 mph8%29.86 "HgN/A
2:30 pm99 °FPassing clouds.12 mph9%29.86 "HgN/A
2:00 pm99 °FPassing clouds.12 mph10%29.86 "HgN/A
1:30 pm97 °FPassing clouds.7 mph10%29.89 "HgN/A
1:00 pm97 °FPassing clouds.12 mph10%29.89 "HgN/A
12:30 pm97 °FSunny.14 mph10%29.89 "Hg10 mi
12:00 pm95 °FSunny.7 mph11%29.89 "Hg10 mi
11:30 am95 °FSunny.5 mph12%29.89 "Hg10 mi
11:00 am93 °FSunny.7 mph13%29.89 "Hg10 mi
Weather by CustomWeather, © 2017

See weather overviewHow to use our weather pages